Regional Weather Roundup
Issued by NWS

Home | Current Version | Previous Version | Text Only | Print | Product List | Glossary On
Versions: 1 2 3 4 5 6 7 8 9 10 11 12 13 14 15 16 17 18 19 20 21 22 23 24 25 26 27 28 29 30 31 32 33 34 35 36 37 38 39 40 41 42 43 44 45 46 47 48 49 50
000
ASUS43 KDTX 261810
RWRMI
MICHIGAN HOURLY REGIONAL WEATHER ROUNDUP
NATIONAL WEATHER SERVICE DETROIT/PONTIAC MI
200 PM EDT THU APR 26 2018

NOTE: "FAIR" INDICATES FEW OR NO CLOUDS BELOW 12,000 FEET WITH NO
SIGNIFICANT WEATHER AND/OR OBSTRUCTION TO VISIBILITY.

MIZ047>049-052>055-059>063-066>070-074>076-081>083-261900-
SOUTHEAST LOWER MICHIGAN

CITY           SKY/WX    TMP DP  RH WIND       PRES   REMARKS
ADRIAN         FAIR      55  38  52 VRB3      29.94F
6HR MIN TEMP:  41; 6HR MAX TEMP:  55;

ALMA           FAIR      59  28  30 W5        29.90F
6HR MIN TEMP:  36; 6HR MAX TEMP:  59;

ANN ARBOR      FAIR      57  36  45 SE6       29.91F
BAD AXE        FAIR      56  27  32 W8        29.91F
6HR MIN TEMP:  38; 6HR MAX TEMP:  56;

CARO           FAIR      57  27  31 W7        29.90F
DETROIT CITY   FAIR      58  35  42 S7        29.91F
6HR MIN TEMP:  41; 6HR MAX TEMP:  58;

DETROIT        FAIR      60  36  40 SW12      29.92F
6HR MIN TEMP:  43; 6HR MAX TEMP:  60;

FLINT          FAIR      57  27  31 NW9       29.90F
6HR MIN TEMP:  36; 6HR MAX TEMP:  58;

GROSSE ILE     FAIR      51  39  65 S12       29.93F
6HR MIN TEMP:  41; 6HR MAX TEMP:  51;

HILLSDALE      FAIR      55  36  47 SW7       29.91F
HOWELL         FAIR      57  29  33 W8        29.90F
6HR MIN TEMP:  37; 6HR MAX TEMP:  57;


CITY           SKY/WX    TMP DP  RH WIND       PRES   REMARKS
JACKSON        FAIR      58  33  39 VRB3      29.91F
6HR MIN TEMP:  36; 6HR MAX TEMP:  59;

LAMBERTVILLE   FAIR      59  38  45 NW7       29.93F
6HR MIN TEMP:  39; 6HR MAX TEMP:  59;

LANSING        FAIR      59  21  23 VRB3      29.91F
6HR MIN TEMP:  37; 6HR MAX TEMP:  59;

LAPEER         FAIR      57  28  33 W8        29.90F
6HR MIN TEMP:  37; 6HR MAX TEMP:  57;

MASON          FAIR      60  22  23 SW3       29.91F
6HR MIN TEMP:  36; 6HR MAX TEMP:  60;

MONROE         FAIR      57  38  48 W12       29.92F
6HR MIN TEMP:  38; 6HR MAX TEMP:  57;

MT. CLEMENS    MOSUNNY   57  36  44 S7        29.91
PONTIAC        PTSUNNY   57  32  38 CALM      29.89F
6HR MIN TEMP:  39; 6HR MAX TEMP:  57;

PORT HOPE        N/A     44  34  67 NW10      29.89F
6HR MIN TEMP:  37; 6HR MAX TEMP:  45;

PORT HURON     FAIR      55  32  41 W6        29.91F
TRI CITIES     FAIR      57  26  30 SW6       29.90F
6HR MIN TEMP:  36; 6HR MAX TEMP:  57;

MIDLAND        FAIR      59  30  33 W7        29.89F
6HR MIN TEMP:  33; 6HR MAX TEMP:  59;

TROY           FAIR      59  32  35 SW6       29.92F
SAGINAW HB     FAIR      55  25  30 W6        29.90F
$$
MIZ043>046-050>051-056>058-064>065-071>073-077>080-261900-
SOUTHWEST LOWER MICHIGAN

CITY           SKY/WX    TMP DP  RH WIND       PRES   REMARKS
BATTLE CREEK   FAIR      60  30  32 SE5       29.92F
6HR MIN TEMP:  37; 6HR MAX TEMP:  60;

BENTON HARBOR  FAIR      51  34  52 W9        29.95F
6HR MIN TEMP:  33; 6HR MAX TEMP:  54;

BIG RAPIDS     FAIR      59  19  21 W8        29.89F
6HR MIN TEMP:  31; 6HR MAX TEMP:  59;

COLDWATER      FAIR      58  32  38 W6        29.93F
6HR MIN TEMP:  41; 6HR MAX TEMP:  58;

FREMONT        FAIR      58  13  16 W8        29.91F
6HR MIN TEMP:  32; 6HR MAX TEMP:  60;

HOLLAND        FAIR      56  31  38 W13       29.94F
6HR MIN TEMP:  36; 6HR MAX TEMP:  58;

GRAND RAPIDS   PTSUNNY   60  29  30 VRB5      29.91F
6HR MIN TEMP:  38; 6HR MAX TEMP:  61;

IONIA          FAIR      60  27  28 CALM      29.90F
6HR MIN TEMP:  37; 6HR MAX TEMP:  60;

KALAMAZOO      FAIR      60  27  28 SW8       29.92F
LUDINGTON      FAIR      51  32  47 SW13      29.92F
6HR MIN TEMP:  31; 6HR MAX TEMP:  52;

MARSHALL       FAIR      58  25  28 NW3       29.91F
6HR MIN TEMP:  35; 6HR MAX TEMP:  59;

MOUNT PLEASANT FAIR      60  30  32 SW6       29.89F
6HR MIN TEMP:  36; 6HR MAX TEMP:  60;

MUSKEGON       PTSUNNY   55  30  38 W8        29.94F
6HR MIN TEMP:  35; 6HR MAX TEMP:  56;

SOUTH HAVEN    FAIR      52  33  47 NW9       29.94F
$$
MIZ016>042-261900-
NORTHERN LOWER MICHIGAN

CITY           SKY/WX    TMP DP  RH WIND       PRES   REMARKS
ALPENA         FAIR      55  23  28 W8        29.87F
6HR MIN TEMP:  34; 6HR MAX TEMP:  55;

BEAVER ISLAND  FAIR      50  31  48 SW14G20   29.86F
6HR MIN TEMP:  37; 6HR MAX TEMP:  50;

BELLAIRE       FAIR      56  27  32 W6        29.88F
6HR MIN TEMP:  28; 6HR MAX TEMP:  56;

CADILLAC       FAIR      59  26  28 W7        29.87F
CHARLEVOIX     FAIR      55  29  36 SW14G20   29.90F
6HR MIN TEMP:  31; 6HR MAX TEMP:  55;

FRANKFORT      FAIR      51  32  47 SW10G17   29.90F
GAYLORD        FAIR      52  25  35 W10       29.86F
6HR MIN TEMP:  28; 6HR MAX TEMP:  53;

GRAYLING       FAIR      58  23  26 SW10      29.85
6HR MIN TEMP:  29; 6HR MAX TEMP:  58;

HARBOR SPRINGS FAIR      47  29  49 SW7       29.87F
HOUGHTON LAKE  FAIR      55  27  34 VRB5      29.88F
6HR MIN TEMP:  34; 6HR MAX TEMP:  56;

MANISTEE       FAIR      57  31  37 W14       29.90F
OSCODA         FAIR      54  30  40 SE10      29.88S
6HR MIN TEMP:  35; 6HR MAX TEMP:  54;

PELLSTON       FAIR      56  27  32 W12G20    29.86F
6HR MIN TEMP:  29; 6HR MAX TEMP:  56;

ROGERS CITY    FAIR      46  29  50 N5        29.87S
TRAVERSE CITY  PTSUNNY   61  28  28 W12G23    29.87S
6HR MIN TEMP:  32; 6HR MAX TEMP:  61;

$$
MIZ007>008-015-261900-
EASTERN UPPER MICHIGAN

CITY           SKY/WX    TMP DP  RH WIND       PRES   REMARKS
KINROSS        FAIR      52  28  39 SW9       29.83F
6HR MIN TEMP:  31; 6HR MAX TEMP:  52;

MACKINAC ISLAN FAIR      48  29  46 W15       29.85F
6HR MIN TEMP:  35; 6HR MAX TEMP:  48;

NEWBERRY       FAIR      47  32  55 S12       29.81F
6HR MIN TEMP:  32; 6HR MAX TEMP:  48;

MUNISING         N/A     59  27  29 S6        29.77F
6HR MIN TEMP:  39; 6HR MAX TEMP:  60;

$$
MIZ004>006-011>014-085-261900-
CENTRAL UPPER MICHIGAN

CITY           SKY/WX    TMP DP  RH WIND       PRES   REMARKS
MANISTIQUE     FAIR      44  36  73 S13       29.82F
6HR MIN TEMP:  36; 6HR MAX TEMP:  44;

ESCANABA       FAIR      50  33  52 S14G20    29.81F
6HR MIN TEMP:  32; 6HR MAX TEMP:  51;

MENOMINEE      FAIR      59  34  39 S15       29.82F
6HR MIN TEMP:  34; 6HR MAX TEMP:  59;

SAWYER-GWINN   SUNNY     59  19  21 SW13G18   29.77F
$$
MIZ001>003-009>011-084-261900-
WESTERN UPPER MICHIGAN

CITY           SKY/WX    TMP DP  RH WIND       PRES   REMARKS
IRON MOUNTAIN  FAIR      62  22  21 SW7       29.77F
6HR MIN TEMP:  30; 6HR MAX TEMP:  63;

HOUGHTON       FAIR      50  29  44 W21       29.76S
6HR MIN TEMP:  45; 6HR MAX TEMP:  54;

COPPER HARBOR    N/A     48  30  49 N14G22    29.76S
6HR MIN TEMP:  40; 6HR MAX TEMP:  58;

IRONWOOD       FAIR      52  32  46 N14       29.81R
6HR MIN TEMP:  42; 6HR MAX TEMP:  57;

$$

ABBREVIATIONS USED IN REMARKS
   TC - TEMPERATURE IN CELSIUS
  WCI - WIND CHILL INDEX
   HX - HEAT INDEX
  VSB - VISIBILITY




USA.gov is the U.S. government's official web portal to all federal, state and local government web resources and services.